Weather in Novo-Shchedrinskaya

Russia / Chechen Republic     43°29′11″N   46°06′31″E
В апреле 2022 года жителям России запретили посещать сайт meteo.paraplan.net по решению Генеральной прокуратуры. Аудитория сайта уменьшилась в 10 раз. Владельцы сайта не видят смысла в поддержке погодного сервера в таких условиях. Сайт будет закрыт в октябре.
temp.,
°C
wind,
m/s
gust,
m/s
humid.,
%
clouds,
%
prec.,
mm/h
press.,
hPa
HPBL,
m
4 october, tue
tue400:00+17nw1271100 0.0 101550
03:00+16ene117079 0.0 101444
06:00+17ene116877 0.0 101450
09:00+20ene345665 0.0 1014652
12:00+26e34468 0.0 10131243
15:00+27ene644225 0.0 10121432
18:00+21ene586722 0.0 1015312
21:00+18ene227945 0.0 101778
5 october, wed
wed500:00+17n11833 0.0 101836
03:00+17nw228487 0.0 101828
06:00+16nnw118786 0.0 101928
09:00+21n116294 0.0 1018502
12:00+26nw4444100 0.0 10181325
15:00+26nw5740100 0.0 10191898
18:00+20wnw71064100 0.0 1022642
21:00+19w5770100 0.0 1024663
6 october, thu
thu600:00+18wnw3569100 0.0 1024628
03:00+18nnw3467100 0.0 1023578
06:00+17n2368100 0.0 1023528
09:00+17n3372100 0.1 1023556
12:00+17n4468100 0.1 1024728
15:00+16n3362100 0.2 1023779
18:00+14nnw3478100 0.3 1026453
21:00+13n2286100 0.9 1027308
7 october, fri
fri700:00+13nne2184100 0.0 1027283
03:00+13e128671 0.1 1026142
06:00+13e228499 0.0 1026224
09:00+14ene337598 0.0 1026480
12:00+19e445589 0.0 10251225
15:00+20e4551100 0.0 10241450
18:00+17ese5861100 0.0 1025545
21:00+16e596596 0.0 1025651
8 october, sat
sat800:00+16ene5106697 0.0 1025676
03:00+16e61166100 0.0 1024884
06:00+17e71266100 0.0 1023989
09:00+18e9126298 0.0 10231111
12:00+20e101358100 0.0 10211352
15:00+20e10125665 0.0 10191289
18:00+17e914655 0.0 1019885
21:00+17e81369100 0.0 1019731